Temp_Advection
nan nan nan nan nan nan nan nan nan nan nan nan nan nan nan nan nan nan nan nan nan nan nan nan nan nan nan nan nan nan nan nan
nan 1 2 1 0 0 0 1 1 1 0 0 0 0 0 0 0 -0 0 0 0 -0 -0 0 -0 -0 -0 0 0 0 1 nan
nan 1 1 1 -0 0 0 0 1 0 0 0 0 0 0 0 -0 -0 0 0 0 -0 0 0 -0 -0 0 0 -0 0 0 nan
nan 1 2 1 0 0 1 1 1 1 1 0 0 0 0 -0 -0 -0 0 0 0 0 0 -0 -0 -0 -0 -0 0 0 -0 nan
nan 1 1 0 1 1 1 1 1 1 1 -0 -0 0 0 -0 -0 0 0 0 0 0 -0 -0 -0 0 -0 -1 -0 0 -0 nan
nan 2 2 1 1 1 1 1 1 1 0 0 0 0 -0 -0 -0 0 -0 -0 -0 0 -0 -0 0 0 -1 -0 0 0 -0 nan
nan 1 1 1 0 0 0 1 1 1 0 0 0 0 0 -0 0 -0 0 0 0 0 0 1 0 0 0 1 1 0 -0 nan
nan 1 1 0 0 1 1 1 1 1 0 0 0 0 0 0 0 0 0 0 0 0 0 0 0 1 1 1 0 -0 -0 nan
nan 1 1 1 2 2 1 0 0 0 0 -0 0 0 0 0 0 0 0 0 0 -0 -0 0 0 -0 0 0 0 0 1 nan
nan 2 1 2 2 1 1 1 0 0 0 -0 0 0 0 0 0 0 0 0 0 0 0 -0 0 0 0 0 1 1 0 nan
nan 1 1 1 0 0 1 1 0 0 0 -0 -0 -0 0 0 0 0 0 0 0 0 -0 -0 0 0 0 0 0 -0 0 nan
nan 0 0 0 0 1 0 1 1 0 -0 -0 -0 -0 -0 0 0 -0 0 0 -0 -0 -0 0 -0 -0 -0 0 0 0 -0 nan
nan 0 0 0 0 0 1 1 1 1 0 0 0 -0 -0 -0 -0 -0 -0 -0 -0 -0 0 -0 -0 0 0 0 -0 -0 0 nan
nan 1 1 1 0 0 1 0 1 1 0 0 0 0 0 0 0 0 -0 -0 -0 0 -0 -0 -0 -0 -0 -0 0 0 0 nan
nan 2 2 1 1 1 0 0 0 -0 0 0 0 0 0 0 0 0 0 0 -0 -0 -0 -0 0 -0 -0 0 0 0 0 nan
nan 1 2 2 1 1 1 1 0 0 0 0 0 0 0 0 0 -0 0 0 0 0 0 -0 -0 0 0 0 0 0 0 nan
nan 1 0 0 1 1 1 1 1 0 0 0 0 0 0 0 0 0 0 0 0 0 0 -0 0 0 0 0 0 -0 -0 nan
nan 0 0 0 0 1 0 -0 1 1 0 0 0 0 0 0 0 0 0 0 0 0 0 0 0 0 0 -0 -0 0 0 nan
nan nan nan nan nan nan nan nan nan nan nan nan nan nan nan nan nan nan nan nan nan nan nan nan nan nan nan nan nan nan nan nan
Wind_Speed
18 25 31 33 28 25 22 20 18 16 16 17 16 17 16 17 18 17 24 35 42 39 39 38 36 37 40 38 34 30 29 28
25 25 31 33 29 28 26 23 20 18 19 20 19 18 16 17 18 17 14 28 40 40 38 32 33 36 39 41 35 32 31 28
26 29 28 35 33 31 29 25 21 20 19 21 21 19 15 18 15 12 17 21 33 38 37 36 36 37 40 42 38 36 33 31
26 30 31 34 36 34 33 26 22 19 19 20 18 16 16 17 14 15 10 15 32 32 32 34 35 38 40 44 42 42 37 34
27 31 34 35 37 36 33 27 22 19 21 22 19 19 19 18 18 18 16 16 19 32 24 25 30 33 36 40 41 41 40 36
24 31 32 31 35 36 35 28 23 19 20 22 19 17 17 17 16 18 18 22 22 26 29 32 29 31 34 38 40 43 41 42
20 23 26 28 32 36 34 29 24 19 18 21 19 17 18 15 17 18 19 19 22 26 30 35 35 33 33 33 35 39 42 42
16 22 28 31 32 36 35 31 26 20 18 21 20 17 16 16 15 14 17 18 22 27 26 33 38 37 34 35 37 36 41 43
21 23 24 27 30 34 37 34 27 20 17 17 20 19 19 18 17 18 20 21 20 21 28 24 25 38 36 35 36 36 37 40
17 19 19 21 25 29 34 33 25 18 14 15 16 18 18 18 16 14 14 15 17 20 24 27 28 29 33 34 41 39 38 39
9 13 15 18 22 26 31 29 22 16 14 13 13 12 13 14 10 10 10 10 13 16 21 22 25 33 28 33 34 41 42 40
7 11 14 17 19 24 27 25 22 16 12 11 10 10 11 11 11 11 9 8 12 14 17 19 22 28 32 28 30 32 43 48
14 16 17 18 19 22 22 21 18 15 12 10 10 9 9 9 10 10 11 11 11 13 16 15 17 22 28 27 26 27 30 40
24 27 25 23 21 22 21 19 16 12 9 7 7 7 6 7 7 7 9 10 10 11 15 16 17 20 23 22 25 27 26 28
24 29 26 25 23 21 19 17 14 11 9 7 7 7 5 4 6 7 7 8 10 12 14 16 18 20 23 25 26 28 30 33
24 25 25 23 22 20 19 18 13 12 12 10 10 10 10 9 8 9 9 10 11 12 14 16 19 23 26 29 32 36 38 38
20 22 23 22 19 18 18 18 18 12 10 9 7 7 9 12 12 12 12 12 13 15 17 20 22 26 32 33 35 37 36 35
20 22 22 20 19 16 15 15 13 10 6 0 4 5 6 8 10 12 13 15 16 17 19 20 22 26 30 30 32 33 34 37
17 18 17 16 15 16 14 15 13 8 5 6 4 4 5 6 7 9 9 10 13 15 17 19 20 23 27 29 31 31 32 34
Wind_Direction
259 250 239 227 223 220 224 225 226 213 212 210 214 225 220 213 217 219 217 215 201 200 196 198 199 196 196 197 198 196 195 190
260 255 241 227 221 218 219 222 220 211 210 209 208 222 207 212 214 225 226 226 212 207 215 209 200 198 199 200 197 195 192 192
260 256 245 226 220 216 218 221 222 214 213 204 205 217 215 209 214 230 223 222 206 211 212 205 198 200 201 201 199 195 196 195
265 250 239 222 217 216 217 218 221 215 205 204 210 209 206 199 194 209 222 219 209 195 209 189 195 204 203 202 203 202 196 197
259 249 231 221 216 214 213 215 218 212 203 206 210 204 198 197 195 198 203 180 194 198 201 198 202 204 207 206 209 209 211 201
257 238 226 217 212 211 208 211 216 213 201 207 206 209 209 211 202 202 203 194 188 186 194 199 206 205 210 211 210 211 213 212
251 231 223 214 207 209 205 208 213 211 201 202 207 213 210 209 200 200 208 211 214 210 203 206 204 205 208 212 215 216 217 221
234 216 207 204 204 207 202 205 210 209 203 198 207 215 218 219 217 226 219 226 228 228 222 212 210 213 207 211 215 217 221 224
241 221 206 203 201 204 196 201 205 206 201 197 201 213 220 222 227 232 238 245 239 230 222 230 219 212 211 217 216 218 219 229
234 217 204 196 195 196 196 197 197 202 197 195 200 207 213 219 229 218 227 225 231 222 215 224 227 206 213 220 217 215 216 219
208 196 184 177 194 189 197 194 190 191 194 192 198 205 210 208 202 201 211 221 221 214 216 220 224 219 224 226 220 219 219 223
98 137 153 172 187 186 189 184 183 178 181 190 189 193 197 205 207 209 211 216 214 223 217 225 223 224 229 236 232 238 224 227
91 126 142 157 170 177 175 178 172 164 166 174 183 194 205 213 217 214 214 217 218 217 221 226 227 224 227 237 237 235 244 230
92 103 112 128 142 153 163 162 161 162 166 170 176 183 194 212 218 226 231 229 230 226 222 225 226 227 232 239 243 246 250 244
74 96 103 113 120 134 147 149 150 151 163 181 209 218 229 228 226 230 236 240 238 238 241 243 244 242 243 248 250 253 256 257
65 80 90 99 106 110 116 124 139 167 175 193 213 220 232 234 232 231 241 248 250 252 251 251 254 255 258 258 260 263 263 264
65 69 72 75 83 91 98 107 116 119 146 165 197 220 225 227 230 231 231 242 251 259 264 263 261 261 254 253 255 259 262 263
64 66 69 71 75 84 93 95 95 107 85 168 187 198 206 213 223 228 234 241 247 251 255 260 260 260 265 267 269 268 268 268
78 71 70 71 74 76 78 81 89 102 140 168 177 196 204 217 222 229 234 239 241 241 243 246 248 252 257 260 264 266 267 269
Height
1420 1423 1427 1432 1438 1443 1446 1449 1452 1454 1458 1460 1462 1463 1465 1468 1470 1473 1476 1475 1476 1485 1492 1498 1503 1508 1516 1523 1530 1536 1541 1545
1416 1417 1421 1427 1432 1437 1440 1444 1448 1452 1455 1457 1459 1460 1463 1466 1468 1469 1472 1474 1475 1480 1487 1495 1501 1507 1513 1519 1526 1533 1538 1543
1410 1411 1415 1420 1424 1430 1435 1439 1444 1448 1451 1454 1456 1458 1461 1463 1466 1467 1469 1469 1470 1476 1482 1490 1498 1504 1511 1516 1521 1528 1534 1539
1403 1405 1407 1413 1417 1423 1428 1434 1439 1444 1448 1451 1454 1457 1460 1461 1464 1466 1466 1466 1468 1473 1479 1487 1495 1501 1506 1512 1516 1523 1527 1534
1395 1396 1401 1405 1411 1418 1425 1430 1435 1441 1445 1448 1452 1454 1457 1459 1462 1465 1466 1469 1470 1472 1480 1487 1493 1499 1504 1510 1514 1520 1523 1530
1387 1388 1395 1402 1408 1413 1421 1427 1432 1437 1442 1446 1449 1453 1456 1459 1461 1464 1467 1468 1472 1474 1479 1484 1490 1495 1501 1506 1510 1516 1522 1526
1383 1386 1392 1398 1403 1409 1417 1423 1428 1434 1438 1443 1447 1451 1453 1457 1460 1463 1465 1468 1470 1473 1478 1483 1487 1492 1497 1503 1509 1514 1518 1522
1381 1383 1386 1392 1396 1403 1412 1419 1425 1430 1435 1440 1444 1448 1451 1455 1458 1460 1463 1466 1468 1470 1474 1479 1485 1488 1494 1501 1505 1509 1513 1517
1377 1380 1383 1387 1392 1398 1407 1414 1422 1427 1432 1436 1441 1445 1448 1451 1455 1457 1460 1462 1464 1466 1470 1475 1480 1483 1491 1496 1501 1505 1509 1513
1375 1378 1382 1385 1390 1398 1405 1412 1419 1426 1430 1434 1438 1441 1445 1448 1451 1454 1456 1459 1461 1465 1468 1472 1476 1482 1486 1490 1494 1499 1504 1508
1373 1377 1379 1384 1390 1398 1404 1413 1419 1424 1428 1432 1436 1439 1442 1445 1449 1451 1454 1456 1459 1462 1465 1469 1473 1476 1482 1486 1488 1493 1498 1502
1378 1378 1380 1385 1391 1397 1404 1412 1416 1422 1427 1430 1433 1436 1439 1443 1446 1448 1451 1454 1456 1459 1463 1466 1469 1473 1478 1481 1484 1487 1491 1495
1383 1383 1384 1388 1393 1399 1405 1410 1414 1419 1424 1429 1432 1434 1437 1440 1443 1446 1449 1451 1453 1456 1459 1462 1465 1469 1474 1477 1479 1482 1485 1487
1389 1384 1387 1391 1397 1400 1405 1408 1412 1418 1423 1427 1430 1433 1436 1438 1441 1443 1446 1449 1451 1453 1456 1459 1462 1466 1469 1472 1474 1477 1480 1483
1392 1390 1394 1396 1399 1401 1406 1408 1412 1418 1422 1426 1428 1432 1434 1437 1439 1441 1443 1446 1449 1452 1454 1457 1459 1462 1465 1468 1470 1472 1474 1476
1399 1398 1398 1401 1403 1405 1407 1408 1412 1416 1419 1423 1427 1429 1432 1434 1436 1438 1441 1444 1447 1449 1451 1453 1456 1458 1461 1462 1463 1465 1466 1466
1405 1403 1403 1403 1406 1408 1409 1410 1412 1415 1418 1421 1425 1426 1428 1431 1433 1435 1437 1439 1441 1443 1446 1447 1450 1451 1449 1451 1453 1454 1455 1456
1409 1409 1409 1411 1412 1414 1414 1413 1414 1416 1415 1421 1423 1425 1426 1428 1430 1431 1433 1435 1437 1439 1440 1441 1442 1442 1442 1443 1445 1446 1447 1447
1414 1415 1416 1418 1419 1418 1418 1416 1415 1417 1421 1425 1424 1425 1424 1426 1426 1428 1429 1431 1432 1434 1435 1436 1435 1436 1436 1436 1437 1438 1439 1440